Location: Харьков
(49.9866°N, 36.2384°E)
Time: 05:51:28
(UTC+03:00)

ISS - Visible Passes

Search period start: 28 September 2021 00:00
Search period end: 08 October 2021 00:00
Orbit: 417 x 423 km, 51.6° (Epoch: 27 September)

Date Brightness Start Highest point End Pass type
(mag) Time Alt. Az. Time Alt. Az. Time Alt. Az.
28 Sep -3.5 18:56:34 10° W 18:59:56 63° N 19:03:15 10° E visible
28 Sep -3.1 20:33:28 10° WNW 20:36:13 53° W 20:36:13 53° W visible
29 Sep -3.8 19:46:09 10° WNW 19:49:32 87° SSW 19:50:43 38° ESE visible
29 Sep -0.6 21:23:16 10° W 21:23:41 12° W 21:23:41 12° W visible
30 Sep -3.7 18:58:51 10° WNW 19:02:14 77° NNE 19:05:15 12° E visible
30 Sep -2.2 20:35:48 10° W 20:38:13 31° WSW 20:38:13 31° WSW visible
01 Oct -3.1 19:48:26 10° WNW 19:51:43 49° SSW 19:52:49 33° SSE visible
02 Oct -3.5 19:01:08 10° WNW 19:04:29 67° SSW 19:07:29 12° ESE visible
02 Oct -1.3 20:38:37 10° W 20:40:27 16° SW 20:40:27 16° SW visible
03 Oct -1.8 19:50:59 10° W 19:53:45 24° SW 19:55:13 18° S visible
04 Oct -2.3 19:03:32 10° W 19:06:38 34° SSW 19:09:42 10° SE visible
05 Oct -0.8 19:54:46 10° WSW 19:55:38 11° SW 19:56:32 10° SSW visible
06 Oct -1.0 19:06:26 10° W 19:08:38 16° SW 19:10:48 10° S visible
